Location: Caltech
(34.1382°N, 118.1253°W)
Time: 18:22:52
(UTC-07:00)

ADEOS II - Visible Passes

Search period start: 24 October 2014 00:00
Search period end: 02 November 2014 23:00
Orbit: 802 x 802 km, 98.3° (Epoch: 24 October)

Date Brightness Start Highest point End Pass type
(mag) Time Alt. Az. Time Alt. Az. Time Alt. Az.
24 Oct 4.2 06:07:07 10° NE 06:11:46 31° E 06:16:22 10° SSE visible
24 Oct 4.6 19:03:10 10° SSW 19:07:26 25° W 19:11:44 10° NW visible
25 Oct 5.2 05:42:12 10° NE 05:45:34 17° E 05:48:55 10° SE visible
25 Oct 3.4 18:36:18 10° S 18:41:18 46° W 18:46:21 10° NNW visible
27 Oct 3.1 06:28:26 10° NNE 06:33:34 52° E 06:38:40 10° S visible
27 Oct 5.3 19:26:25 10° SW 19:29:20 15° W 19:32:16 10° WNW visible
28 Oct 4.3 06:02:56 10° NE 06:07:27 29° E 06:11:56 10° SSE visible
28 Oct 4.4 18:58:42 10° SSW 19:03:07 27° W 19:07:34 10° NW visible
29 Oct 5.3 05:38:10 10° ENE 05:41:15 16° E 05:44:19 10° SE visible
29 Oct 3.2 18:31:56 10° S 18:37:00 50° W 18:42:07 10° NNW visible
31 Oct 3.3 06:24:11 10° NNE 06:29:15 48° E 06:34:18 10° S visible
31 Oct 5.2 19:21:46 10° SW 19:25:00 16° W 19:28:14 10° NW visible
01 Nov 4.5 05:58:45 10° NE 06:03:07 26° E 06:07:28 10° SSE visible
01 Nov 4.3 18:54:15 10° SSW 18:58:48 30° W 19:03:23 10° NW visible
02 Nov 5.3 04:34:09 10° ENE 04:36:54 14° E 04:39:38 10° SE visible
02 Nov 3.0 17:27:34 10° S 17:32:41 55° W 17:37:51 10° NNW visible
